JNA512 RKPC-RKSS

Flight info

Callsign JNA512
Flight time 0h 43m
Altitude 27000
Route KAMIT2E KAMIT Y722 OLMEN OLMEN2T
Aircraft B738/M-SDE2FGHIM3RWY/LB1

Departure

Time 2026-04-29 12:21
Airport Jeju International Airport (RKPC)

Arrival

Time 2026-04-29 13:04
Airport Gimpo International Airport (RKSS)
Time Latitude Longitude Altitude Speed Heading
2026-04-29 11:16 33.50819 126.49487 93 ft 0 kts 177°
2026-04-29 12:09 33.50821 126.49487 93 ft 2 kts 177°
2026-04-29 12:09 33.50847 126.49486 93 ft 4 kts 177°
2026-04-29 12:10 33.50874 126.49484 92 ft 4 kts 177°
2026-04-29 12:10 33.50898 126.49483 93 ft 2 kts 177°
2026-04-29 12:10 33.50922 126.49485 93 ft 4 kts 209°
2026-04-29 12:10 33.50937 126.49506 93 ft 4 kts 267°
2026-04-29 12:11 33.50934 126.49537 93 ft 4 kts 283°
2026-04-29 12:11 33.50925 126.49567 92 ft 4 kts 295°
2026-04-29 12:11 33.50921 126.49580 92 ft 1 kts 295°
2026-04-29 12:13 33.50922 126.49577 93 ft 2 kts 294°
2026-04-29 12:13 33.50935 126.49531 93 ft 10 kts 282°
2026-04-29 12:14 33.50936 126.49425 91 ft 16 kts 252°
2026-04-29 12:14 33.50878 126.49300 91 ft 17 kts 238°
2026-04-29 12:14 33.50818 126.49181 92 ft 16 kts 238°
2026-04-29 12:14 33.50758 126.49066 88 ft 16 kts 238°
2026-04-29 12:15 33.50702 126.48956 88 ft 15 kts 238°
2026-04-29 12:15 33.50703 126.48917 91 ft 4 kts 328°
2026-04-29 12:15 33.50748 126.48885 90 ft 11 kts 328°
2026-04-29 12:15 33.50799 126.48803 90 ft 15 kts 258°
2026-04-29 12:16 33.50744 126.48689 90 ft 18 kts 238°
2026-04-29 12:16 33.50674 126.48552 89 ft 20 kts 238°
2026-04-29 12:16 33.50597 126.48403 90 ft 22 kts 238°
2026-04-29 12:16 33.50515 126.48244 92 ft 22 kts 238°
2026-04-29 12:17 33.50435 126.48087 92 ft 22 kts 239°
2026-04-29 12:17 33.50358 126.47936 95 ft 21 kts 238°
2026-04-29 12:17 33.50283 126.47789 94 ft 20 kts 239°
2026-04-29 12:17 33.50210 126.47646 93 ft 20 kts 238°
2026-04-29 12:18 33.50138 126.47509 95 ft 19 kts 238°
2026-04-29 12:18 33.50069 126.47376 98 ft 19 kts 239°
2026-04-29 12:18 33.50004 126.47246 96 ft 18 kts 239°
2026-04-29 12:18 33.49940 126.47121 97 ft 17 kts 239°
2026-04-29 12:19 33.49882 126.46999 96 ft 17 kts 253°
2026-04-29 12:19 33.49938 126.46902 96 ft 13 kts 329°
2026-04-29 12:19 33.50002 126.46873 96 ft 10 kts 22°
2026-04-29 12:19 33.50017 126.46894 98 ft 0 kts 59°
2026-04-29 12:20 33.50076 126.47009 97 ft 47 kts 58°
2026-04-29 12:20 33.50373 126.47588 94 ft 114 kts 58°
2026-04-29 12:20 33.50888 126.48590 103 ft 166 kts 58°
2026-04-29 12:20 33.51523 126.49822 701 ft 166 kts 56°
2026-04-29 12:21 33.52212 126.50847 1631 ft 159 kts 44°
2026-04-29 12:21 33.53008 126.51764 2473 ft 154 kts 42°
2026-04-29 12:21 33.53804 126.52658 3285 ft 159 kts 43°
2026-04-29 12:21 33.54672 126.53630 3766 ft 188 kts 43°
2026-04-29 12:22 33.55697 126.54781 4022 ft 215 kts 43°
2026-04-29 12:22 33.56842 126.56070 4391 ft 233 kts 43°
2026-04-29 12:22 33.58077 126.57461 4717 ft 254 kts 44°
2026-04-29 12:22 33.59389 126.58941 5433 ft 264 kts 44°
2026-04-29 12:23 33.60736 126.60466 6276 ft 271 kts 43°
2026-04-29 12:23 33.62180 126.62014 6960 ft 282 kts 33°
2026-04-29 12:23 33.63973 126.62833 7848 ft 282 kts 10°
2026-04-29 12:23 33.65946 126.63262 8668 ft 288 kts
2026-04-29 12:24 33.67924 126.63663 9465 ft 295 kts
2026-04-29 12:24 33.69962 126.64085 9877 ft 298 kts
2026-04-29 12:24 33.72022 126.64528 9978 ft 303 kts
2026-04-29 12:24 33.74119 126.64995 9986 ft 302 kts
2026-04-29 12:25 33.76148 126.65459 9984 ft 299 kts
2026-04-29 12:25 33.78183 126.65930 9989 ft 297 kts
2026-04-29 12:25 33.82295 126.66895 10132 ft 318 kts
2026-04-29 12:26 33.84553 126.67425 10331 ft 344 kts
2026-04-29 12:26 33.86970 126.67995 10687 ft 361 kts
2026-04-29 12:26 33.89468 126.68590 11317 ft 370 kts
2026-04-29 12:26 33.92009 126.69196 12025 ft 375 kts
2026-04-29 12:27 33.94594 126.69814 12709 ft 382 kts
2026-04-29 12:27 33.97215 126.70440 13453 ft 386 kts
2026-04-29 12:27 33.99851 126.71072 14217 ft 389 kts
2026-04-29 12:27 34.02529 126.71712 14771 ft 396 kts
2026-04-29 12:28 34.05255 126.72363 15318 ft 403 kts
2026-04-29 12:28 34.08019 126.73024 15890 ft 408 kts
2026-04-29 12:28 34.10826 126.73696 16455 ft 414 kts
2026-04-29 12:28 34.13673 126.74380 16986 ft 420 kts
2026-04-29 12:29 34.16554 126.75073 17594 ft 424 kts
2026-04-29 12:29 34.19466 126.75774 18163 ft 429 kts
2026-04-29 12:29 34.22413 126.76480 18617 ft 436 kts
2026-04-29 12:29 34.25406 126.77186 19086 ft 439 kts
2026-04-29 12:30 34.28421 126.77676 19603 ft 437 kts 359°
2026-04-29 12:30 34.31453 126.78007 20122 ft 438 kts 358°
2026-04-29 12:30 34.34495 126.78286 20672 ft 439 kts 357°
2026-04-29 12:30 34.37554 126.78558 21201 ft 442 kts 357°
2026-04-29 12:31 34.40629 126.78842 21675 ft 445 kts 357°
2026-04-29 12:31 34.43724 126.79142 22187 ft 447 kts 357°
2026-04-29 12:31 34.46839 126.79457 22605 ft 452 kts 357°
2026-04-29 12:31 34.49984 126.79784 22999 ft 456 kts 357°
2026-04-29 12:32 34.53157 126.80121 23439 ft 460 kts 357°
2026-04-29 12:32 34.55274 126.80349 23744 ft 462 kts 357°
2026-04-29 12:32 34.58492 126.80689 24045 ft 466 kts 357°
2026-04-29 12:32 34.61732 126.81035 24424 ft 469 kts 357°
2026-04-29 12:33 34.66106 126.81513 24891 ft 474 kts 357°
2026-04-29 12:33 34.69390 126.81862 25247 ft 476 kts 357°
2026-04-29 12:33 34.71580 126.82093 25475 ft 478 kts 357°
2026-04-29 12:33 34.74904 126.82446 25805 ft 481 kts 357°
2026-04-29 12:34 34.78246 126.82801 26141 ft 484 kts 357°
2026-04-29 12:34 34.81616 126.83159 26466 ft 487 kts 357°
2026-04-29 12:34 34.85002 126.83527 26807 ft 490 kts 357°
2026-04-29 12:34 34.88399 126.83891 27106 ft 491 kts 357°
2026-04-29 12:35 34.91797 126.84254 27116 ft 489 kts 357°
2026-04-29 12:35 34.95183 126.84614 27130 ft 488 kts 357°
2026-04-29 12:35 34.98576 126.84978 27131 ft 490 kts 357°
2026-04-29 12:35 35.01968 126.85343 27117 ft 490 kts 357°
2026-04-29 12:36 35.05358 126.85704 27144 ft 489 kts 357°
2026-04-29 12:36 35.08749 126.86073 27134 ft 490 kts 357°
2026-04-29 12:36 35.12142 126.86441 27139 ft 490 kts 357°
2026-04-29 12:36 35.15536 126.86807 27161 ft 490 kts 357°
2026-04-29 12:37 35.18935 126.87176 27143 ft 490 kts 357°
2026-04-29 12:37 35.22324 126.87544 27139 ft 490 kts 357°
2026-04-29 12:37 35.25724 126.87915 27132 ft 489 kts 357°
2026-04-29 12:37 35.29113 126.88284 27133 ft 489 kts 357°
2026-04-29 12:38 35.32498 126.88654 27130 ft 489 kts 357°
2026-04-29 12:38 35.35882 126.89019 27144 ft 488 kts 357°
2026-04-29 12:38 35.39262 126.89380 27142 ft 487 kts 357°
2026-04-29 12:38 35.42641 126.89764 27159 ft 487 kts 357°
2026-04-29 12:39 35.46017 126.90140 27133 ft 487 kts 357°
2026-04-29 12:39 35.49382 126.90500 27123 ft 486 kts 356°
2026-04-29 12:39 35.52762 126.90859 27145 ft 486 kts 357°
2026-04-29 12:39 35.56125 126.91229 27154 ft 485 kts 357°
2026-04-29 12:40 35.59486 126.91603 27139 ft 484 kts 357°
2026-04-29 12:40 35.62835 126.91972 27124 ft 483 kts 357°
2026-04-29 12:40 35.66179 126.92338 27131 ft 481 kts 357°
2026-04-29 12:40 35.69505 126.92703 27130 ft 480 kts 357°
2026-04-29 12:41 35.72831 126.93067 27136 ft 479 kts 357°
2026-04-29 12:41 35.76153 126.93431 27139 ft 479 kts 357°
2026-04-29 12:41 35.79426 126.93790 27137 ft 478 kts 357°
2026-04-29 12:41 35.82740 126.94155 27128 ft 478 kts 357°
2026-04-29 12:42 35.86052 126.94519 27140 ft 478 kts 357°
2026-04-29 12:42 35.89372 126.94885 27136 ft 479 kts 357°
2026-04-29 12:42 35.92689 126.95251 27158 ft 479 kts 358°
2026-04-29 12:42 35.96017 126.95622 27144 ft 480 kts 358°
2026-04-29 12:43 35.99344 126.95993 27133 ft 481 kts 358°
2026-04-29 12:43 36.02643 126.96366 27112 ft 469 kts 358°
2026-04-29 12:43 36.05863 126.96735 26813 ft 460 kts 358°
2026-04-29 12:43 36.09026 126.97092 26402 ft 454 kts 358°
2026-04-29 12:44 36.12157 126.97441 25964 ft 450 kts 358°
2026-04-29 12:44 36.15263 126.97786 25483 ft 446 kts 358°
2026-04-29 12:44 36.18346 126.98128 25007 ft 443 kts 359°
2026-04-29 12:44 36.21409 126.98470 24533 ft 440 kts 359°
2026-04-29 12:45 36.24442 126.98809 24059 ft 437 kts 359°
2026-04-29 12:45 36.27466 126.99148 23578 ft 434 kts 359°
2026-04-29 12:45 36.30459 126.99541 23058 ft 430 kts 359°
2026-04-29 12:45 36.33417 126.99857 22586 ft 425 kts 359°
2026-04-29 12:46 36.36349 127.00159 22141 ft 420 kts 359°
2026-04-29 12:46 36.39245 127.00432 21677 ft 413 kts 356°
2026-04-29 12:46 36.42094 127.00420 21230 ft 406 kts 353°
2026-04-29 12:46 36.44898 127.00275 20780 ft 401 kts 352°
2026-04-29 12:47 36.47674 127.00108 20366 ft 397 kts 352°
2026-04-29 12:47 36.50424 126.99962 19944 ft 394 kts 353°
2026-04-29 12:47 36.53154 126.99846 19524 ft 390 kts 353°
2026-04-29 12:47 36.55856 126.99743 19101 ft 387 kts 354°
2026-04-29 12:48 36.58538 126.99645 18677 ft 384 kts 354°
2026-04-29 12:48 36.61201 126.99551 18212 ft 382 kts 354°
2026-04-29 12:48 36.63848 126.99455 17728 ft 378 kts 355°
2026-04-29 12:48 36.66465 126.99361 17284 ft 375 kts 355°
2026-04-29 12:49 36.69058 126.99268 16838 ft 371 kts 355°
2026-04-29 12:49 36.71626 126.99214 16405 ft 369 kts
2026-04-29 12:49 36.74095 127.00004 16006 ft 368 kts 24°
2026-04-29 12:49 36.76185 127.01772 15715 ft 362 kts 40°
2026-04-29 12:50 36.78040 127.03876 15348 ft 358 kts 43°
2026-04-29 12:50 36.79845 127.06000 14944 ft 355 kts 43°
2026-04-29 12:50 36.81631 127.08105 14587 ft 351 kts 44°
2026-04-29 12:50 36.83404 127.10180 14238 ft 347 kts 44°
2026-04-29 12:51 36.85163 127.12223 13883 ft 343 kts 44°
2026-04-29 12:51 36.86905 127.14236 13478 ft 340 kts 44°
2026-04-29 12:51 36.88635 127.16231 13046 ft 337 kts 44°
2026-04-29 12:51 36.90355 127.18213 12620 ft 335 kts 44°
2026-04-29 12:52 36.92063 127.20179 12212 ft 332 kts 43°
2026-04-29 12:52 36.93970 127.21761 11991 ft 332 kts 19°
2026-04-29 12:52 36.96260 127.22189 11984 ft 337 kts 359°
2026-04-29 12:52 36.98591 127.21860 11992 ft 337 kts 353°
2026-04-29 12:53 37.00905 127.21420 11982 ft 337 kts 352°
2026-04-29 12:53 37.03218 127.20968 11986 ft 333 kts 352°
2026-04-29 12:53 37.05486 127.20532 11536 ft 328 kts 352°
2026-04-29 12:53 37.07733 127.20111 10910 ft 325 kts 353°
2026-04-29 12:54 37.09962 127.19701 10399 ft 319 kts 353°
2026-04-29 12:54 37.12093 127.19312 10289 ft 300 kts 353°
2026-04-29 12:54 37.14099 127.18949 10172 ft 283 kts 353°
2026-04-29 12:54 37.15993 127.18607 9845 ft 276 kts 353°
2026-04-29 12:55 37.17889 127.18267 9345 ft 275 kts 353°
2026-04-29 12:55 37.19779 127.17927 8866 ft 274 kts 353°
2026-04-29 12:55 37.21657 127.17588 8406 ft 271 kts 353°
2026-04-29 12:55 37.23518 127.17253 7958 ft 269 kts 352°
2026-04-29 12:56 37.25329 127.16706 7490 ft 270 kts 332°
2026-04-29 12:56 37.26808 127.15268 7200 ft 269 kts 317°
2026-04-29 12:56 37.28175 127.13684 6984 ft 266 kts 317°
2026-04-29 12:56 37.29538 127.12118 6701 ft 266 kts 317°
2026-04-29 12:57 37.30897 127.10557 6479 ft 262 kts 316°
2026-04-29 12:57 37.32178 127.08982 6405 ft 253 kts 315°
2026-04-29 12:57 37.33397 127.07452 6330 ft 244 kts 315°
2026-04-29 12:57 37.34589 127.05959 6138 ft 240 kts 315°
2026-04-29 12:58 37.35751 127.04502 6036 ft 230 kts 315°
2026-04-29 12:58 37.36864 127.03112 5809 ft 222 kts 315°
2026-04-29 12:58 37.37944 127.01764 5417 ft 218 kts 316°
2026-04-29 12:58 37.39024 127.00417 4953 ft 218 kts 316°
2026-04-29 12:59 37.40092 126.99085 4642 ft 210 kts 316°
2026-04-29 12:59 37.41091 126.97838 4466 ft 197 kts 316°
2026-04-29 12:59 37.42056 126.96632 4115 ft 194 kts 316°
2026-04-29 12:59 37.43014 126.95436 3704 ft 194 kts 316°
2026-04-29 13:00 37.43974 126.94239 3299 ft 194 kts 316°
2026-04-29 13:00 37.44919 126.93058 3035 ft 185 kts 316°
2026-04-29 13:00 37.45780 126.91978 2826 ft 170 kts 316°
2026-04-29 13:00 37.46620 126.90931 2478 ft 168 kts 316°
2026-04-29 13:01 37.47442 126.89909 2161 ft 163 kts 316°
2026-04-29 13:01 37.48232 126.88924 1914 ft 158 kts 315°
2026-04-29 13:01 37.49013 126.87945 1700 ft 158 kts 315°
2026-04-29 13:01 37.49766 126.87002 1512 ft 149 kts 315°
2026-04-29 13:02 37.50491 126.86093 1290 ft 146 kts 315°
2026-04-29 13:02 37.51219 126.85198 1076 ft 145 kts 315°
2026-04-29 13:02 37.51945 126.84318 910 ft 145 kts 315°
2026-04-29 13:02 37.52651 126.83419 739 ft 144 kts 314°
2026-04-29 13:03 37.53360 126.82542 576 ft 142 kts 315°
2026-04-29 13:03 37.54052 126.81635 317 ft 144 kts 314°
2026-04-29 13:03 37.54753 126.80747 100 ft 141 kts 315°
2026-04-29 13:03 37.55390 126.79943 55 ft 108 kts 314°
2026-04-29 13:04 37.55768 126.79465 61 ft 49 kts 315°
2026-04-29 13:04 37.55992 126.79183 64 ft 44 kts 315°
2026-04-29 13:04 37.56202 126.79008 59 ft 30 kts 340°
2026-04-29 13:04 37.56327 126.79005 63 ft 16 kts 56°
2026-04-29 13:05 37.56282 126.79113 63 ft 15 kts 135°
2026-04-29 13:05 37.56211 126.79204 64 ft 14 kts 134°
2026-04-29 13:05 37.56142 126.79290 64 ft 13 kts 135°
2026-04-29 13:05 37.56077 126.79371 62 ft 13 kts 135°
2026-04-29 13:06 37.56015 126.79450 63 ft 12 kts 134°
2026-04-29 13:06 37.55956 126.79529 63 ft 12 kts 126°
2026-04-29 13:06 37.55936 126.79625 62 ft 12 kts 94°
2026-04-29 13:06 37.55923 126.79725 63 ft 11 kts 98°
2026-04-29 13:07 37.55912 126.79822 66 ft 11 kts 99°
2026-04-29 13:07 37.55900 126.79915 63 ft 11 kts 99°
2026-04-29 13:07 37.55868 126.79995 64 ft 10 kts 132°
2026-04-29 13:07 37.55819 126.80057 63 ft 10 kts 135°
2026-04-29 13:08 37.55771 126.80118 63 ft 10 kts 134°
2026-04-29 13:08 37.55736 126.80185 64 ft 9 kts 86°
2026-04-29 13:08 37.55772 126.80237 63 ft 5 kts 44°
2026-04-29 13:08 37.55780 126.80247 60 ft 0 kts 44°